Kuchera_Ratio
0.0 0.0 0.0 0.0 0.0 0.0 0.0 0.0 0.0 0.0 0.0 1.2 2.9 3.9 5.3 5.9 5.4 6.7 7.5 8.0 8.4 8.5 8.6 9.0 9.5 10.0 10.3 10.6 11.3 12.1 12.5 12.7 12.9 13.1 13.3 14.0 14.4 14.6 14.7 14.9 15.1 15.8
0.0 0.0 0.0 0.0 0.0 0.0 0.0 0.0 0.0 0.0 0.0 0.0 0.7 1.7 3.2 5.0 4.5 6.1 7.0 7.6 8.3 8.6 8.7 9.0 9.6 10.3 10.6 11.0 11.6 12.2 13.0 13.2 13.8 12.7 13.9 14.2 14.6 14.3 14.4 14.6 15.2 15.3
0.0 0.0 0.2 0.7 0.0 0.0 0.0 0.0 0.0 0.0 0.0 0.0 0.0 1.0 2.1 1.5 5.4 5.2 6.6 7.4 8.7 8.3 8.9 9.1 9.8 10.6 11.1 11.5 12.1 12.3 13.2 13.6 14.2 13.2 14.0 14.1 13.9 14.1 14.1 14.1 14.9 15.7
0.0 0.0 0.0 0.0 0.0 0.0 0.0 0.0 0.0 0.0 0.0 0.0 0.0 0.1 1.1 3.4 2.7 6.4 7.1 7.0 8.5 9.2 8.9 9.2 10.0 10.9 11.5 12.0 12.3 12.9 12.9 13.0 13.3 13.2 13.9 13.6 13.6 13.9 14.2 14.2 15.1 16.1
0.0 0.0 0.0 0.0 0.0 0.0 0.0 0.2 0.5 0.0 0.0 0.0 0.0 0.7 2.1 3.6 5.4 6.4 7.4 8.3 8.5 9.5 10.0 10.4 10.0 11.0 11.8 12.2 12.4 13.1 12.9 13.0 12.9 13.4 13.8 14.2 13.9 14.2 14.5 14.7 16.0 17.2
0.0 0.0 0.0 0.0 0.0 0.2 0.5 0.8 0.3 0.3 0.4 0.5 0.0 0.1 2.0 3.0 5.0 6.5 7.6 8.9 9.0 9.6 10.5 11.1 11.2 11.6 12.0 12.5 12.7 12.9 13.0 13.2 13.1 13.3 13.9 14.5 14.6 14.3 14.9 15.3 16.6 17.7
0.0 0.0 0.0 0.0 0.5 0.5 1.0 0.9 0.7 0.9 0.5 0.2 0.7 1.4 2.0 3.3 4.9 6.5 7.9 8.9 9.5 10.2 10.2 11.2 11.6 12.1 12.2 12.6 12.8 13.2 13.1 13.3 13.3 13.6 14.5 14.8 15.1 15.3 15.1 15.9 17.0 17.7
0.0 0.0 0.0 0.1 1.0 1.2 1.8 1.4 1.6 1.4 1.4 2.0 2.5 1.8 2.4 3.5 5.6 7.0 8.4 9.2 9.4 9.5 9.7 10.7 11.9 12.2 12.3 12.6 13.2 13.6 13.8 13.8 14.3 14.4 15.1 15.5 15.4 16.2 16.1 16.4 17.2 18.7
0.0 0.0 0.3 1.3 1.9 1.7 2.3 1.9 2.0 2.4 2.5 3.2 3.0 3.3 4.0 4.5 6.8 7.7 8.4 8.7 9.1 9.5 10.2 11.3 12.0 12.4 12.5 13.2 13.7 14.1 14.6 14.7 15.0 15.1 15.6 16.2 16.3 16.5 16.6 16.6 17.7 19.0
0.0 0.0 0.0 1.1 1.9 2.1 2.9 2.8 2.6 3.2 3.7 3.9 3.8 4.1 6.2 6.9 6.8 7.3 8.2 8.7 9.9 10.7 11.5 12.2 12.6 12.9 13.2 13.6 14.3 14.6 15.2 15.6 15.5 15.7 15.9 16.1 16.6 16.6 16.6 17.0 18.6 19.5
0.0 0.0 0.0 0.8 1.5 2.5 3.3 3.5 4.2 4.1 4.8 5.3 5.3 6.2 7.1 7.7 8.4 7.9 9.1 10.3 11.6 12.0 12.5 12.8 13.1 13.4 13.9 14.2 14.6 14.7 15.3 16.0 16.4 16.6 16.7 16.7 16.8 16.9 17.0 17.8 18.6 19.7
0.0 0.0 0.0 0.6 1.5 2.4 3.1 3.8 4.7 5.5 6.2 7.0 7.3 6.9 7.9 8.7 9.5 10.0 10.8 11.9 12.0 12.2 12.6 13.1 13.4 13.8 14.3 14.8 15.1 15.2 15.6 16.2 16.6 16.8 16.8 17.1 17.1 17.1 17.3 18.0 19.1 19.5
0.0 0.0 0.0 0.6 1.5 2.3 3.1 4.0 4.9 5.9 6.9 7.8 8.4 7.2 8.7 10.7 11.1 11.5 11.8 12.2 12.5 12.7 13.3 13.8 14.2 14.6 15.2 15.4 15.8 16.1 16.6 16.9 17.1 17.1 17.1 17.3 17.4 17.7 18.0 18.4 19.1 19.5
0.0 0.0 0.3 1.0 1.8 2.6 3.5 4.5 5.6 6.9 7.9 8.8 9.5 9.4 10.5 11.8 12.5 12.5 12.6 12.8 13.0 13.4 13.6 14.4 15.2 15.6 16.0 16.2 16.4 16.6 17.1 17.3 17.3 17.6 17.8 17.9 18.0 18.2 18.5 19.2 19.6 20.1
0.3 1.0 1.6 2.2 2.9 3.8 4.7 5.9 7.1 8.3 9.3 10.3 11.2 10.9 12.1 12.5 12.7 13.0 14.0 14.1 14.1 14.3 14.8 15.0 15.7 16.1 16.2 16.6 17.0 17.2 17.3 17.7 17.7 18.0 18.3 18.8 19.2 19.5 19.7 20.2 20.6 20.6
2.3 3.0 3.8 4.3 5.0 5.8 6.8 8.0 9.0 10.0 11.1 12.0 12.5 12.9 13.2 13.5 14.0 14.1 14.9 15.4 15.5 15.7 15.8 15.9 16.2 16.1 15.9 15.5 15.4 17.1 17.6 17.9 18.1 18.4 18.7 19.5 20.2 21.1 21.4 21.3 21.3 21.1
4.8 5.5 6.3 6.9 7.6 8.5 9.3 10.4 11.1 12.0 12.4 12.8 13.4 13.9 14.2 14.6 15.1 15.6 16.1 15.9 16.1 16.4 16.7 16.6 16.6 16.4 15.4 13.7 13.8 14.3 17.1 18.3 18.9 19.1 19.3 20.1 21.1 21.8 22.3 22.2 22.2 21.9
7.7 8.6 9.3 9.8 10.5 11.1 11.8 12.3 12.6 13.0 13.5 13.8 14.3 14.9 15.3 15.7 16.1 16.4 16.5 16.5 16.5 16.7 17.1 17.0 17.1 16.1 14.0 13.3 13.3 13.6 15.4 18.4 19.0 19.8 20.5 21.7 22.3 22.5 22.6 22.6 22.6 22.8
10.8 11.5 12.0 12.3 12.7 12.9 13.2 13.6 13.9 14.3 14.6 14.9 15.3 15.8 16.3 16.7 16.7 16.8 17.3 17.0 17.2 17.5 17.9 17.6 18.0 15.6 13.9 13.3 13.4 13.4 13.7 16.9 19.8 20.4 21.6 22.5 22.7 22.9 23.1 23.4 23.4 23.4
12.8 12.9 13.2 13.6 14.0 14.3 14.6 14.9 15.2 15.4 15.7 16.0 16.4 16.9 17.3 17.6 17.6 17.5 17.8 18.1 17.9 18.0 18.2 18.4 19.0 16.8 14.1 13.6 13.6 13.4 13.5 15.3 21.0 21.0 22.0 22.6 22.9 23.3 23.4 23.6 23.4 23.6
13.2 14.0 14.4 14.8 15.2 15.5 15.9 16.0 16.3 16.6 16.9 17.3 17.6 17.9 18.2 18.4 18.5 18.6 18.8 18.8 18.7 18.6 19.0 19.3 19.6 16.3 14.4 13.9 13.7 13.6 13.7 14.0 19.4 21.0 21.3 21.7 22.0 22.2 22.4 22.7 23.0 23.0
14.6 15.0 15.5 15.9 16.3 16.6 16.9 17.1 17.4 17.7 17.9 18.3 18.6 18.8 19.1 19.3 19.4 19.3 19.6 19.8 19.4 19.6 19.9 20.3 20.1 16.0 14.9 14.3 14.0 14.0 13.8 16.1 17.7 19.5 20.5 20.9 21.2 21.6 21.9 21.9 22.1 22.5
15.4 16.1 16.4 16.8 17.1 17.4 17.7 17.9 18.3 18.6 18.8 19.0 19.4 19.8 20.1 20.3 20.5 20.7 20.4 20.4 20.5 20.6 20.9 20.9 21.2 17.6 15.2 14.8 14.7 14.3 15.1 17.7 19.2 20.4 20.6 20.9 21.0 20.8 21.1 21.3 21.4 21.7
15.8 16.6 17.3 17.6 17.9 18.0 18.3 18.6 18.9 19.3 19.6 19.8 20.1 20.6 21.0 21.2 21.2 21.1 20.7 20.8 21.1 21.5 21.5 21.9 21.8 20.2 16.5 15.4 15.1 14.7 15.7 19.1 20.9 21.6 21.9 21.6 22.3 22.5 22.5 22.3 21.7 19.9
17.4 17.7 18.0 18.3 18.5 18.6 18.9 19.4 19.8 20.1 20.4 20.8 21.1 21.4 21.5 21.3 21.1 21.5 21.7 21.6 21.7 21.8 20.7 21.9 22.2 21.6 18.2 16.6 15.6 15.2 16.4 18.8 20.2 21.2 21.9 22.3 22.5 23.0 23.0 22.8 22.4 20.9
18.4 18.7 18.9 19.2 19.4 19.5 19.8 20.2 20.7 21.0 21.3 21.3 21.6 21.4 21.9 21.8 21.7 21.8 22.3 22.3 22.3 22.6 22.5 22.1 23.0 22.8 21.7 17.8 16.8 16.1 15.7 18.6 20.9 21.5 22.2 22.4 22.5 23.1 23.6 23.4 23.1 23.2